| time (UTC) | temp F | wind direction | speed MPH | gust MPH | rain 1hr in | rain 24hr in | rain mn in | humidity % | barometer mb |
| 20260506233055 | 50 | 263 | 0.0 | 0.0 | 0.00 | 0.99 | 0.00 | 87 | 1012.3 |
| 20260506231607 | 50 | 263 | 0.0 | 0.0 | 0.00 | 0.99 | 0.00 | 87 | 1012.4 |
| 20260506230105 | 50 | 263 | 0.0 | 0.0 | 0.00 | 0.99 | 0.00 | 86 | 1012.4 |
| 20260506224548 | 51 | 263 | 0.0 | 0.0 | 0.00 | 0.99 | 0.00 | 87 | 1012.5 |
| 20260506223046 | 51 | 263 | 0.0 | 0.0 | 0.00 | 0.99 | 0.00 | 88 | 1012.5 |
| 20260506221602 | 51 | 263 | 0.0 | 0.0 | 0.00 | 0.99 | 0.00 | 88 | 1012.5 |
| 20260506220055 | 51 | 263 | 0.0 | 0.0 | 0.00 | 0.99 | 0.00 | 88 | 1012.5 |
| 20260506214544 | 51 | 263 | 0.0 | 0.0 | 0.00 | 0.99 | 0.99 | 87 | 1012.2 |
| 20260506213055 | 52 | 263 | 0.0 | 0.0 | 0.00 | 0.99 | 0.99 | 87 | 1012.1 |
| 20260506211540 | 52 | 263 | 0.0 | 0.0 | 0.00 | 0.99 | 0.99 | 86 | 1012.0 |
| 20260506210051 | 52 | 263 | 0.0 | 0.0 | 0.00 | 0.99 | 0.99 | 85 | 1011.9 |
| 20260506204540 | 53 | 263 | 0.0 | 0.0 | 0.00 | 0.99 | 0.99 | 84 | 1011.8 |
| 20260506203039 | 53 | 263 | 0.0 | 0.0 | 0.00 | 0.99 | 0.99 | 85 | 1011.5 |
| 20260506201545 | 54 | 263 | 0.0 | 0.0 | 0.00 | 0.99 | 0.99 | 84 | 1011.4 |
| 20260506200038 | 54 | 263 | 0.0 | 0.0 | 0.00 | 0.99 | 0.99 | 84 | 1011.1 |
| 20260506194537 | 55 | 263 | 0.0 | 0.0 | 0.00 | 0.99 | 0.99 | 83 | 1010.7 |
| 20260506193037 | 56 | 263 | 0.0 | 0.0 | 0.00 | 0.99 | 0.99 | 82 | 1010.4 |
| 20260506191536 | 57 | 263 | 0.0 | 0.0 | 0.00 | 0.99 | 0.99 | 80 | 1010.1 |
| 20260506190035 | 57 | 263 | 0.0 | 0.0 | 0.00 | 0.99 | 0.99 | 79 | 1009.9 |
| 20260506184538 | 58 | 263 | 0.0 | 0.0 | 0.00 | 1.00 | 0.99 | 78 | 1009.6 |
| 20260506183035 | 58 | 263 | 0.0 | 0.0 | 0.00 | 1.00 | 0.99 | 77 | 1009.3 |
| 20260506181535 | 59 | 263 | 0.0 | 0.0 | 0.00 | 1.00 | 0.99 | 75 | 1009.0 |
| 20260506180038 | 59 | 263 | 0.0 | 0.0 | 0.00 | 1.00 | 0.99 | 74 | 1008.7 |
| 20260506174534 | 60 | 263 | 0.0 | 0.0 | 0.00 | 1.00 | 0.99 | 72 | 1008.5 |
| 20260506173031 | 60 | 263 | 0.0 | 0.0 | 0.00 | 1.00 | 0.99 | 70 | 1008.2 |
| 20260506171539 | 60 | 286 | 0.0 | 0.0 | 0.00 | 1.00 | 0.99 | 69 | 1007.9 |
| 20260506170029 | 61 | 286 | 0.0 | 7.0 | 0.00 | 1.00 | 0.99 | 68 | 1008.0 |
| 20260506164529 | 62 | 291 | 0.0 | 4.0 | 0.00 | 1.00 | 0.99 | 65 | 1007.8 |
| 20260506163030 | 63 | 287 | 1.0 | 8.0 | 0.00 | 1.00 | 0.99 | 62 | 1007.7 |
| 20260506161530 | 64 | 286 | 0.0 | 9.0 | 0.00 | 1.00 | 0.99 | 64 | 1007.8 |
| 20260506160029 | 63 | 280 | 0.0 | 5.0 | 0.00 | 1.00 | 0.99 | 68 | 1008.2 |
| 20260506154526 | 62 | 279 | 0.0 | 4.0 | 0.00 | 1.00 | 0.99 | 70 | 1008.5 |
| 20260506153025 | 62 | 279 | 0.0 | 0.0 | 0.01 | 1.00 | 0.99 | 71 | 1008.6 |
| 20260506151526 | 60 | 279 | 0.0 | 0.0 | 0.01 | 1.00 | 0.99 | 72 | 1008.6 |
| 20260506150027 | 59 | 279 | 0.0 | 0.0 | 0.01 | 1.00 | 0.99 | 74 | 1008.9 |
| 20260506144523 | 60 | 165 | 0.0 | 7.0 | 0.01 | 1.00 | 0.99 | 69 | 1008.9 |
| 20260506143022 | 61 | 304 | 0.0 | 0.0 | 0.00 | 0.99 | 0.98 | 71 | 1008.2 |
| 20260506141522 | 62 | 304 | 0.0 | 0.0 | 0.00 | 0.99 | 0.98 | 67 | 1007.7 |
| 20260506140027 | 62 | 304 | 0.0 | 0.0 | 0.00 | 0.99 | 0.98 | 65 | 1007.7 |
| 20260506134521 | 62 | 304 | 0.0 | 3.0 | 0.00 | 0.99 | 0.98 | 63 | 1007.7 |
| 20260506133027 | 63 | 304 | 0.0 | 0.0 | 0.00 | 0.99 | 0.98 | 65 | 1007.9 |
| 20260506131518 | 63 | 304 | 0.0 | 6.0 | 0.00 | 0.99 | 0.98 | 64 | 1008.1 |
| 20260506130012 | 61 | 305 | 0.0 | 0.0 | 0.00 | 0.99 | 0.98 | 71 | 1008.4 |
| 20260506124508 | 60 | 306 | 0.0 | 6.0 | 0.00 | 0.99 | 0.98 | 70 | 1008.7 |
| 20260506123008 | 60 | 302 | 0.0 | 8.0 | 0.00 | 0.99 | 0.98 | 71 | 1008.7 |
| 20260506121503 | 60 | 321 | 1.0 | 5.0 | 0.01 | 0.99 | 0.98 | 68 | 1008.8 |
| 20260506114557 | 57 | 338 | 1.0 | 10.0 | 0.01 | 0.99 | 0.98 | 77 | 1008.9 |
| 20260506113052 | 56 | 107 | 0.0 | 8.0 | 0.01 | 0.99 | 0.98 | 82 | 1008.9 |
| 20260506111549 | 55 | 109 | 0.0 | 0.0 | 0.00 | 0.98 | 0.98 | 87 | 1009.0 |
| 20260506110048 | 54 | 109 | 0.0 | 0.0 | 0.00 | 0.98 | 0.98 | 88 | 1009.1 |
| 20260506104553 | 53 | 109 | 0.0 | 0.0 | 0.00 | 0.98 | 0.98 | 87 | 1009.0 |
| 20260506103052 | 52 | 109 | 0.0 | 0.0 | 0.00 | 0.98 | 0.98 | 89 | 1009.1 |
| 20260506101547 | 51 | 109 | 0.0 | 3.0 | 0.00 | 0.98 | 0.98 | 90 | 1009.2 |
| 20260506094543 | 50 | 109 | 0.0 | 7.0 | 0.08 | 0.98 | 0.98 | 93 | 1009.3 |
| 20260506093041 | 50 | 112 | 0.0 | 1.0 | 0.13 | 0.98 | 0.98 | 93 | 1009.3 |
| 20260506091538 | 52 | 112 | 0.0 | 0.0 | 0.17 | 0.98 | 0.98 | 95 | 1009.3 |
| 20260506090036 | 52 | 112 | 0.0 | 0.0 | 0.21 | 0.97 | 0.96 | 95 | 1009.2 |
| 20260506084540 | 52 | 112 | 0.0 | 0.0 | 0.20 | 0.91 | 0.90 | 95 | 1009.1 |
| 20260506083035 | 52 | 112 | 0.0 | 0.0 | 0.23 | 0.86 | 0.85 | 95 | 1009.4 |
| 20260506081534 | 52 | 112 | 0.0 | 0.0 | 0.28 | 0.82 | 0.81 | 95 | 1009.3 |
| 20260506073029 | 53 | 112 | 0.0 | 0.0 | 0.34 | 0.63 | 0.62 | 95 | 1009.0 |
| 20260506071527 | 54 | 112 | 0.0 | 0.0 | 0.24 | 0.54 | 0.53 | 95 | 1009.1 |
| 20260506061523 | 54 | 112 | 0.0 | 0.0 | 0.13 | 0.33 | 0.28 | 95 | 1008.6 |
| 20260506060122 | 54 | 112 | 0.0 | 6.0 | 0.18 | 0.32 | 0.28 | 95 | 1008.7 |
| 20260506044525 | 54 | 112 | 0.0 | 3.0 | 0.06 | 0.31 | 0.06 | 94 | 1009.2 |
| 20260506043012 | 54 | 112 | 0.0 | 1.0 | 0.03 | 0.28 | 0.03 | 94 | 1009.3 |
| 20260506041512 | 55 | 112 | 0.0 | 1.0 | 0.02 | 0.28 | 0.02 | 94 | 1009.3 |
| 20260506040010 | 55 | 112 | 0.0 | 0.0 | 0.00 | 0.26 | 0.00 | 94 | 1009.5 |
| 20260506034508 | 55 | 112 | 0.0 | 0.0 | 0.00 | 0.32 | 0.00 | 94 | 1009.7 |
| 20260506033006 | 55 | 112 | 0.0 | 0.0 | 0.00 | 0.32 | 0.00 | 94 | 1009.9 |
| 20260506031515 | 55 | 112 | 0.0 | 0.0 | 0.00 | 0.32 | 0.00 | 94 | 1010.2 |
| 20260506030008 | 54 | 112 | 0.0 | 0.0 | 0.00 | 0.32 | 0.00 | 94 | 1010.2 |
| 20260506024506 | 55 | 112 | 0.0 | 0.0 | 0.00 | 0.34 | 0.00 | 93 | 1010.5 |
| 20260506023100 | 55 | 112 | 0.0 | 0.0 | 0.00 | 0.34 | 0.00 | 93 | 1010.6 |
| 20260506023000 | 55 | 112 | 0.0 | 0.0 | 0.00 | 0.34 | 0.00 | 93 | 1010.6 |
| 20260506021601 | 55 | 112 | 0.0 | 0.0 | 0.00 | 0.34 | 0.00 | 93 | 1010.8 |
| 20260506020055 | 55 | 112 | 0.0 | 0.0 | 0.00 | 0.34 | 0.00 | 93 | 1010.8 |
| 20260506014603 | 55 | 112 | 0.0 | 0.0 | 0.00 | 0.35 | 0.00 | 93 | 1010.9 |
| 20260506013055 | 55 | 112 | 0.0 | 0.0 | 0.00 | 0.35 | 0.00 | 93 | 1011.0 |
| 20260506011551 | 55 | 112 | 0.0 | 1.0 | 0.00 | 0.35 | 0.00 | 93 | 1011.4 |
| 20260506010053 | 55 | 112 | 0.0 | 2.0 | 0.00 | 0.35 | 0.00 | 93 | 1011.7 |
| 20260506004551 | 55 | 112 | 0.0 | 0.0 | 0.00 | 0.35 | 0.00 | 93 | 1011.8 |
| 20260506003048 | 55 | 112 | 0.0 | 0.0 | 0.00 | 0.35 | 0.00 | 93 | 1011.7 |
| 20260506001551 | 55 | 112 | 0.0 | 0.0 | 0.00 | 0.35 | 0.00 | 93 | 1012.0 |
| 20260506000045 | 55 | 112 | 0.0 | 1.0 | 0.00 | 0.35 | 0.00 | 93 | 1012.1 |
| 20260505234543 | 55 | 112 | 0.0 | 0.0 | 0.00 | 0.35 | 0.00 | 93 | 1012.4 |